Regional Weather Roundup
Issued by NWS

Home | Current Version | Previous Version | Text Only | Print | Product List | Glossary On
Versions: 1 2 3 4 5 6 7 8 9 10 11 12 13 14 15 16 17 18 19 20 21 22 23 24 25 26 27 28 29 30 31 32 33 34 35 36 37 38 39 40 41 42 43 44 45 46 47 48 49 50
000
ASUS43 KDTX 171610
RWRMI
MICHIGAN HOURLY REGIONAL WEATHER ROUNDUP
NATIONAL WEATHER SERVICE DETROIT/PONTIAC MI
ISSUED BY NATIONAL WEATHER SERVICE GRAND RAPIDS MI
1100 AM EST TUE JAN 17 2017

NOTE: "FAIR" INDICATES FEW OR NO CLOUDS BELOW 12,000 FEET WITH NO
SIGNIFICANT WEATHER AND/OR OBSTRUCTION TO VISIBILITY.

MIZ047>049-052>055-059>063-066>070-074>076-081>083-171700-
SOUTHEAST LOWER MICHIGAN

CITY           SKY/WX    TMP DP  RH WIND       PRES   REMARKS
ADRIAN         FOG       38  38 100 CALM      29.79R VSB 3/4
ALMA           CLOUDY    33  33  99 NE6       29.80S FOG     WCI  28
ANN ARBOR      FOG       36  36 100 CALM      29.77S VSB 1/4
BAD AXE        CLOUDY    35  34  98 E7        29.80F FOG     WCI  29
DETROIT CITY   LGT RAIN  37  37 100 N3        29.78R VSB 1/4
DETROIT        FOG       37  37 100 N3        29.78S VSB 1
FLINT          FOG       36  36 100 NE3       29.78F VSB 3/4
GROSSE ILE     FOG       42  42  99 CALM      29.76S VSB 1/4
HILLSDALE      CLOUDY    45  45 100 SW8       29.76S FOG
HOWELL         MIX PCPN  37  36  96 CALM      29.77R VSB 1/4

CITY           SKY/WX    TMP DP  RH WIND       PRES   REMARKS
JACKSON        FOG       40  39  97 SW5       29.76R VSB 1/4
LANSING        FOG       35  33  92 NE6       29.78S VSB 1/2 WCI  30
MASON          FOG       36  36 100 N5        29.77R VSB 1/4 WCI  32
MONROE         CLOUDY    49  49 100 SW5       29.76S
MT. CLEMENS    FOG       38  38 100 NE6       29.76S VSB 1/8 WCI  33
PONTIAC        FOG       33  31  92 CALM      29.75F VSB 1/8
PORT HOPE        N/A     35  34  96 E15       29.80F WCI  25
PORT HURON     FOG       37  37 100 E3        29.79S VSB 1
TRI CITIES     CLOUDY    34  34 100 NE9       29.80F FOG     WCI  27
YPSILANTI      FOG       36  36 100 CALM      29.78S VSB 1/2
$$
MIZ043>046-050>051-056>058-064>065-071>073-077>080-171700-
SOUTHWEST LOWER MICHIGAN

CITY           SKY/WX    TMP DP  RH WIND       PRES   REMARKS
BATTLE CREEK   CLOUDY    44  44 100 W18       29.77R FOG
BENTON HARBOR  CLOUDY    38  37  97 W15       29.83R FOG     WCI  29
BIG RAPIDS     CLOUDY    33  32  96 E7        29.78F WCI  27
COLDWATER      LGT RAIN  45  45 100 W17G25    29.79R
HOLLAND        FOG       38  36  92 CALM      29.77R VSB 1
GRAND RAPIDS   FOG       35  33  92 E8        29.78R VSB 1   WCI  29
KALAMAZOO      CLOUDY    43  40  89 W15G25    29.79R FOG
MARSHALL       FOG       45  44  98 SW9       29.76R VSB 1
MOUNT PLEASANT CLOUDY    33  32  97 NE6       29.79F FOG     WCI  27
MUSKEGON       CLOUDY    37  36  96 E7        29.78R WCI  32
STURGIS        DRIZZLE   42  42  99 W12G20    29.80R
$$
MIZ016>042-171700-
NORTHERN LOWER MICHIGAN

CITY           SKY/WX    TMP DP  RH WIND       PRES   REMARKS
ALPENA         LGT RAIN  34  32  92 E10G18    29.87F FOG     WCI  26
BEAVER ISLAND  LGT SNOW  32  32 100 E15G22    29.88F WCI  22
BELLAIRE       CLOUDY    37  33  88 NE3       29.85R
CADILLAC       DRIZZLE   33  32  96 E9        29.78F WCI  25
CHARLEVOIX     CLOUDY    34  34  99 NE6       29.89R WCI  29
GAYLORD        CLOUDY    34  32  92 E9        29.82F FOG     WCI  27
HOUGHTON LAKE  CLOUDY    34  33  96 E12       29.82R WCI  25
MANISTEE       CLOUDY    36  35  96 NE3       29.80S
OSCODA         CLOUDY    36  35  96 NE13      29.83F FOG     WCI  27
PELLSTON       CLOUDY    34  31  88 E12       29.90S FOG     WCI  25
TRAVERSE CITY  CLOUDY    37  34  89 NE5       29.83R WCI  33
LUDINGTON      CLOUDY    35  35  99 CALM      29.79S
$$
MIZ007>008-015-171700-
EASTERN UPPER MICHIGAN

CITY           SKY/WX    TMP DP  RH WIND       PRES   REMARKS
KINROSS        CLOUDY    30  27  88 NE9       29.95S WCI  22
MACKINAC ISLAN CLOUDY    32  32 100 E15G23    29.92R WCI  22
NEWBERRY       CLOUDY    29  28  94 E6        29.93F WCI  23
S. S. MARIE    CLOUDY    32  25  75 E6        29.96S WCI  26
$$
MIZ004>006-011>014-085-171700-
CENTRAL UPPER MICHIGAN

CITY           SKY/WX    TMP DP  RH WIND       PRES   REMARKS
MANISTIQUE     CLOUDY    32  31  97 NE8       29.90F FOG     WCI  25
ESCANABA       CLOUDY    32  31  96 NE8       29.89S FOG     WCI  25
SAWYER-GWINN   CLOUDY    28  25  86 N5        29.89F WCI  23
$$
MIZ001>003-009>011-084-171700-
WESTERN UPPER MICHIGAN

CITY           SKY/WX    TMP DP  RH WIND       PRES   REMARKS
IRON MOUNTAIN  CLOUDY    32  27  81 N6        29.87F WCI  26
HOUGHTON       MOSUNNY   32  27  81 E6        29.91F WCI  26
COPPER HARBOR    N/A     34  27  75 VRB3      29.93F
IRONWOOD       CLOUDY    27  22  81 CALM      29.93S
$$

ABBREVIATIONS USED IN REMARKS
   TC - TEMPERATURE IN CELSIUS
  WCI - WIND CHILL INDEX
   HX - HEAT INDEX
  VSB - VISIBILITY




USA.gov is the U.S. government's official web portal to all federal, state and local government web resources and services.